Tracking 18840 objects as of 17-November-2017
HD Live streaming from Space Station
objects crossing your sky now

ARIANE 44L R/B

Track ARIANE 44L R/B now!


NORAD ID: 27604
Int'l Code: 2002-057B
Perigee: 306.2 km
Apogee: 34,435.4 km
Inclination: 7.1 °
Period: 606.8 minutes
Semi major axis: 23741 km
RCS: 19.6191 m2 (large)
Launch date: December 17, 2002
Source: France (FR)
Launch site: FRENCH GUIANA (FRGUI)

Note: This is a ROCKET BODY
aabbcc
Your satellite tracking list
Your tracking list is empty




NASA's NSSDC Master Catalog

Two Line Element Set (TLE):
1 27604U 02057B   17319.07516424 +.00001423 +00000-0 +10265-2 0  9999
2 27604 007.1127 188.7874 7187576 221.8019 052.4114 02.37318880123683
Source of the keplerian elements: AFSPC